Flag for Colombia Weather past 2 weeks in Barranquilla, Colombia

Now
79 °F

Clear.


Feels Like: 83 °F
Forecast: 78 / 89 °F
Wind: 7 mph from North

Location: Barranquilla / Ernestocortissoz


UV Index: 10 (Very high)

Visibility: 10 mi


Pressure: 29.82 "Hg

Humidity: 94%

Dew point: 77 °F

Location of BarranquillaLocation

Historic Weather in Barranquilla

°F

Barranquilla temperature yesterday

Maximum temperature yesterday: 93 °F (at 11:00 AM)
Minimum temperature yesterday: 79 °F (at 12:00 AM)
Average temperature yesterday: 83 °F

Past Weeks' High & Low Weather Summary

 TemperatureHumidityPressure
High102 °F (Apr 19, 4:00 PM)100% (Apr 6, 2:00 AM)29.92 "Hg (Apr 6, 2:00 AM)
Low75 °F (Apr 9, 4:00 AM)42% (Apr 19, 4:00 PM)29.72 "Hg (Apr 6, 5:00 PM)
Average83 °F81%29.80 "Hg
* Reported Midnight between Apr 5 and Apr 6 — Midnight between Apr 20 and Apr 21, Barranquilla, Weather by CustomWeather, © 2014

Note: Actual official high and low records may vary slightly from our data, if they occured in-between our weather recording intervals... More about our weather records

Advertising

Historic Weather Conditions — Data for Previous 24 hours

 ConditionsComfort  
Time TempWeatherWind HumidityBarometerVisibility
12:00 AM
Apr 21
79 °FClear.9 mph94%29.83 "Hg10 mi
11:00 PM
Apr 20
81 °FClear.8 mph89%29.84 "Hg10 mi
10:00 PM81 °FClear.14 mph89%29.84 "Hg10 mi
9:00 PM81 °FPassing clouds.8 mph89%29.84 "HgN/A
8:00 PM81 °FPassing clouds.14 mph89%29.82 "HgN/A
7:00 PM81 °FPassing clouds.12 mph89%29.82 "HgN/A
6:00 PM82 °FBroken clouds.9 mph84%29.80 "HgN/A
5:00 PM82 °FBroken clouds.5 mph84%29.79 "HgN/A
4:00 PM86 °FScattered clouds.9 mph75%29.78 "HgN/A
3:00 PM90 °FScattered clouds.17 mph71%29.77 "HgN/A
2:00 PM91 °FPartly sunny.14 mph67%29.79 "HgN/A
1:00 PM91 °FBroken clouds.14 mph67%29.83 "HgN/A
12:00 PMN/AScattered clouds.No windN/A29.83 "HgN/A
11:00 AM93 °FScattered clouds.5 mph59%29.88 "HgN/A
10:00 AM90 °FScattered clouds.5 mph67%29.89 "HgN/A
9:00 AM86 °FPassing clouds.3 mph75%29.90 "HgN/A
8:00 AM82 °FPassing clouds.7 mph89%29.88 "HgN/A
7:00 AM81 °FFog.6 mph89%29.87 "Hg3 mi
6:00 AM79 °FPartly sunny.5 mph94%29.84 "Hg2 mi
5:00 AM79 °FPassing clouds.7 mph94%29.83 "HgN/A
4:00 AM79 °FPassing clouds.10 mph94%29.80 "HgN/A
3:00 AM79 °FClear.10 mph94%29.80 "Hg10 mi
2:00 AM79 °FClear.9 mph94%29.81 "Hg10 mi
1:00 AM79 °FClear.6 mph94%29.82 "Hg10 mi
Weather by CustomWeather, © 2014

See weather overview